Regional Weather Roundup
Issued by NWS Jackson, KY

Home | Current Version | Previous Version | Graphics & Text | Print | Product List | Glossary On
Versions: 1 2 3 4 5 6 7 8 9 10 11 12 13 14 15 16 17 18 19 20 21 22 23 24 25 26 27 28 29 30 31 32 33 34 35 36 37 38 39 40 41 42 43 44 45 46 47 48 49 50
000
ASUS43 KJKL 211310
RWRJKL

EAST KENTUCKY HOURLY WEATHER ROUNDUP
NATIONAL WEATHER SERVICE JACKSON KY
900 AM EDT SUN SEP 21 2014

NOTE: "FAIR" INDICATES FEW OR NO CLOUDS BELOW 12,000 FEET WITH
NO SIGNIFICANT WEATHER AND/OR OBSTRUCTIONS TO VISIBILITY.

* THESE REPORTS ARE NOT UNDER NWS QUALITY CONTROL AND MAY NOT
  REPORT WEATHER SUCH AS PRECIPITATION AND FOG.

KYZ079-080-083-085-087-088-110-112-115-119-120-211400
...EASTERN KENTUCKY...

CITY           SKY/WX    TMP DP  RH WIND       PRES   REMARKS
JACKSON        MOSUNNY   68  63  84 VRB3      29.94F
LONDON         MOSUNNY   68  62  81 S6        29.97F
SOMERSET*      PTSUNNY   64  64 100 CALM      29.96F
MONTICELLO*    MOSUNNY   71  66  84 SW9       29.97F
WILLIAMSBURG*  MOSUNNY   66  64  94 CALM      29.98F
MIDDLESBORO*   FOG       59  59 100 CALM      30.01S VSB 1/2
HARLAN APT*    CLOUDY    59  59 100 MISG      30.02R VSB<1/4
BLACK MTN*       N/A     61  59  94 E1          N/A
PIKEVILLE APT* PTSUNNY   64  61  88 S3        29.96S
BIG SANDY*     PTSUNNY   68  63  86 SW6       29.94S
MOREHEAD APT*  PTSUNNY   70  64  83 SW13G20   29.92S
$$

KYZ035-036-041-042-044-050-067-078-099-211400
...CENTRAL KENTUCKY...

CITY           SKY/WX    TMP DP  RH WIND       PRES   REMARKS
MT STERLING*   PTSUNNY   70  66  88 W8        29.91F
FLEMING/MASON* CLOUDY    70  66  88 SW12G18   29.88F
DANVILLE*      PTSUNNY   68  64  88 SW9       29.93F
RICHMOND*      PTSUNNY   70  64  83 SW8       29.92F
LEXINGTON      PTSUNNY   72  66  81 SW10      29.90S
FRANKFORT      CLOUDY    70  66  87 W5        29.88S
$$

KYZ091>093-OHZ055-061-077-WVZ005-015-034-035-042-211400
...SOUTHERN OHIO/WEST VIRGINIA...

CITY           SKY/WX    TMP DP  RH WIND       PRES   REMARKS
COVINGTON      PTSUNNY   72  66  81 W8        29.85S
COLUMBUS       PTSUNNY   72  64  76 SW10      29.77F
DAYTON         PTSUNNY   72  67  84 W16G23    29.81S
WILMINGTON     CLOUDY    70  65  84 W13       29.82S
HUNTINGTON     SUNNY     67  64  90 S8        29.88S
CHARLESTON     PTSUNNY   68  64  87 SW5       29.90S
PINEVILLE*     MOSUNNY   60  60 100 MISG      30.04R
BECKLEY        MOSUNNY   63  56  78 SW5       30.00F
BLUEFIELD      PTSUNNY   63  55  75 W8        30.03F
$$

VAZ002-007-008-TNZ017-027-036-066-071-211400
...SOUTHWEST VIRGINIA/EAST TENNESSEE...

CITY           SKY/WX    TMP DP  RH WIND       PRES   REMARKS
WISE*          SUNNY     64  61  88 SW10      30.05R
JONESVILLE*    CLOUDY    57  57 100 CALM      30.05R FOG
ABINGDON*      MOSUNNY   61  59  95 CALM      30.04S
BRISTOL        MOSUNNY   61  57  87 CALM      30.03R
KNOXVILLE      MOSUNNY   68  61  78 SW6       30.01S
OAK RIDGE      MOSUNNY   67  63  87 VRB5      30.03S
CROSSVILLE     SUNNY     67  60  78 SW3       30.05S
NASHVILLE      PTSUNNY   71  67  87 SW6       29.99S
$$

...KEY TO REMARKS...
VSB - VISIBILITY IN MILES
WCI - WIND CHILL INDEX
HX  - HEAT INDEX

$$



USA.gov is the U.S. government's official web portal to all federal, state and local government web resources and services.